Location: Unspecified
(0.0000°N, 0.0000°E)
Time: 11:52:12
(UTC+00:00)

Hubble Space Telescope - Pass Details

Date: 24 May 2017
Orbit: 538 x 542 km, 28.5° (Epoch: 22 August)

Event Time Altitude Azimuth Distance (km) Brightness Sun altitude
Rises 05:06:11 0° 328° (NNW) 2,672 4.2 -11.8°
Reaches altitude 10° 05:09:15 10° 352° (N) 1,782 3.6 -11.1°
Maximum altitude 05:11:41 15° 28° (NNE) 1,486 3.7 -10.5°
Drops below altitude 10° 05:14:06 10° 64° (ENE) 1,783 5.1 -10.0°
Sets 05:17:10 0° 88° (E) 2,675 5.9 -9.3°
